• Join FlightAware (Why Join?)
  • Login
  • US Flag 
01:48AM EDT


 

Airport Tracker/Info


-or-


 

Live Flight TrackerFlight Track Log ✈ ASQ5049 ✈ 09-Oct-2013 ✈ KORD - KDTW

Flight Track Log - Related Links

Times and Time Zones

All times are in EDT time to prevent confusion due to time zone crossing. See the ASQ5049 flight status page for this flight to view local times or setup timezone preferences in your user account.

Time Position Orientation Groundspeed Altitude Reporting Facility
EDT Latitude Longitude Course Direction KTS MPH feet Rate Location/Type
07:39PM 41.9833 -87.8500 92° East 182 209 2,400  Level Chicago TRACON
07:41PM 41.9792 -87.6769 92° East 266 306 5,000 1,800 Climbing Chicago Center
07:42PM 42.0056 -87.5828 69° East 280 322 7,700 2,520 Climbing Chicago Center
07:43PM 42.0708 -87.5439 24° Northeast 302 348 10,300 2,580 Climbing Chicago Center
07:44PM 42.1364 -87.6131 322° Northwest 306 352 13,100 2,040 Climbing Chicago Center
07:45PM 42.2286 -87.6197 357° North 333 383 14,600 1,980 Climbing Chicago Center
07:46PM 42.3525 -87.6217 359° North 371 427 17,200 2,100 Climbing Chicago Center
07:47PM 42.4597 -87.6258 358° North 385 443 19,000 1,740 Climbing Chicago Center
07:48PM 42.5697 -87.6281 359° North 395 455 20,900 1,800 Climbing Chicago Center
07:49PM 42.6883 -87.6297 359° North 409 471 22,800 1,740 Climbing Chicago Center
07:50PM 42.8019 -87.6147 North 415 478 24,600 1,680 Climbing Chicago Center
07:51PM 42.8606 -87.4833 59° Northeast 420 483 26,300 1,140 Climbing Chicago Center
07:52PM 42.8956 -87.3181 74° East 429 494 27,000 300 Climbing Chicago Center
07:53PM 42.9319 -87.1547 73° East 447 514 27,000  Level Chicago Center
07:54PM 42.9744 -86.9597 73° East 447 514 27,000  Level Chicago Center
07:55PM 43.0086 -86.8067 73° East 426 490 27,000  Level Chicago Center
07:56PM 43.0403 -86.6536 74° East 421 484 27,000  Level Chicago Center
07:57PM 43.0744 -86.4972 73° East 426 490 27,000  Level Chicago Center
07:58PM 43.1069 -86.3422 74° East 426 490 27,000  Level Chicago Center
07:59PM 43.1408 -86.1836 74° East 428 493 27,000  Level Chicago Center
08:00PM 43.1733 -86.0136 75° East 446 513 27,000  Level Chicago Center
08:01PM 43.1900 -85.8375 83° East 455 524 27,000 -180 Level Chicago Center
08:02PM 43.2100 -85.6311 82° East 454 522 26,700 -960 Descending Chicago Center
08:04PM 43.2264 -85.4639 82° East 445 512 25,100 -1,560 Descending Chicago Center
08:05PM 43.2411 -85.3006 83° East 435 501 23,500 -1,020 Descending Chicago Center
08:06PM 43.2328 -85.1397 94° East 431 496 23,000 -300 Descending Chicago Center
08:07PM 43.2039 -84.9856 104° East 421 484 23,000  Level Chicago Center
08:08PM 43.1750 -84.8292 104° East 422 486 23,000 -120 Level Chicago Center
08:09PM 43.1469 -84.6761 104° East 419 482 22,800 -1,020 Descending Chicago Center
08:10PM 43.1147 -84.5064 105° East 389 448 20,900 -1,680 Descending Chicago Center
08:11PM 43.0881 -84.3686 105° East 379 436 19,400 -1,500 Descending Chicago Center
08:11PM 43.0728 -84.2933 106° East 377 434 18,600 -1,320 Descending Cleveland Center
08:12PM 43.0472 -84.1572 104° East 372 428 17,400 -1,380 Descending Cleveland Center
08:13PM 43.0283 -84.0619 105° East 367 422 16,300 -1,560 Descending Cleveland Center
08:13PM 43.0192 -84.0228 108° East 369 425 15,800 -1,860 Descending Cleveland Center
08:14PM 42.9467 -83.9094 131° Southeast 342 394 13,700 -1,800 Descending Cleveland Center
08:15PM 42.8953 -83.8264 130° Southeast 342 394 12,200 -1,620 Descending Cleveland Center
08:15PM 42.8853 -83.8117 133° Southeast 338 389 12,100 -240 Descending Cleveland Center
08:16PM 42.8231 -83.7283 135° Southeast 306 352 12,000 -60 Descending Cleveland Center
08:17PM 42.7464 -83.6808 156° South 297 342 12,000  Level Cleveland Center
08:18PM 42.7369 -83.6758 159° South 292 336 12,000 -1,200 Level Cleveland Center
08:18PM 42.6708 -83.6353 156° South 298 343 10,800 -1,860 Descending Cleveland Center
08:19PM 42.6011 -83.5933 156° South 289 333 8,600 -2,340 Descending Cleveland Center
08:20PM 42.5978 -83.5914 157° South 291 335 8,400 -2,220 Descending Cleveland Center
08:21PM 42.5678 -83.4836 111° Southeast 271 312 6,100 -2,040 Descending Cleveland Center
08:21PM 42.5700 -83.4936 287° West 278 320 6,300 -120 Climbing Cleveland Center
08:22PM 42.5344 -83.4025 118° Southeast 225 259 6,000 -300 Descending Cleveland Center
08:22PM 42.5392 -83.4086 316° Northwest 254 292 6,000 -240 Level Cleveland Center
08:23PM 42.4931 -83.3428 134° Southeast 218 251 5,800 -120 Descending Cleveland Center
08:23PM 42.4978 -83.3456 337° Northwest 229 264 5,900 -1,320 Climbing Cleveland Center
08:24PM 42.4422 -83.2958 147° Southeast 218 251 4,500 -1,500 Descending Cleveland Center
08:24PM 42.4372 -83.2917 148° Southeast 218 251 4,400 -1,020 Descending Cleveland Center
08:25PM 42.3842 -83.2850 175° South 189 217 3,500 -900 Descending Cleveland Center
08:25PM 42.3825 -83.2839 154° Southeast 202 232 3,500 -360 Level Cleveland Center
08:26PM 42.3311 -83.2850 181° South 187 215 3,100 -420 Descending Cleveland Center
08:26PM 42.3272 -83.2911 229° Southwest 175 201 3,100 -1,080 Level Cleveland Center
08:27PM 42.2847 -83.3247 210° Southwest 158 182 2,000 -1,020 Descending Cleveland Center
08:27PM 42.2872 -83.3200 54° Northeast 181 208 2,100 -720 Climbing Cleveland Center
08:28PM 42.2492 -83.3506 211° Southwest 142 163 1,300 -780 Descending Cleveland Center
08:28PM 42.2514 -83.3458 58° Northeast 160 184 1,300 -420 Level Cleveland Center
08:29PM 42.2114 -83.3758 209° Southwest 152 175 900 -420 Descending Cleveland Center